Weather History for KCUL - February, 2013

Change the Weather History Date:

Friday, February 8, 2013

  Actual Average (KEVV) Record (KEVV)
Temperature  
Mean Temperature 40 °F 35 °F  
Max Temperature 45 °F 44 °F 72 °F (1925)
Min Temperature 34 °F 26 °F -5 °F (1985)
Degree Days  
Heating Degree Days 26 30  
Month to date heating degree days 248  
Since 1 July heating degree days 3027  
Cooling Degree Days 0 0  
Month to date cooling degree days 0  
Year to date cooling degree days 0  
Moisture  
Dew Point 33 °F    
Average Humidity 81    
Maximum Humidity 93    
Minimum Humidity 75    
Precipitation  
Precipitation 0.00 in 0.11 in 1.63 in (1950)
Month to date precipitation 0.94  
Year to date precipitation 4.04  
Snow  
Snow 0.00 in 0.20 in 2.80 in (1979)
Month to date snowfall 1.2  
Since 1 July snowfall 8.1  
Snow Depth -    
Sea Level Pressure  
Sea Level Pressure 30.23 in    
Wind  
Wind Speed 15 mph (NNW)    
Max Wind Speed 23 mph    
Max Gust Speed 31 mph    
Visibility 10 miles    
Events      
T = Trace of Precipitation, MM = Missing Value Source: NWS Daily Summary

Daily Weather History Graph

Daily Weather History Graph

Search for Another Location

Airport or City:

Trip Planner

Search our weather history database for the weather conditions in past years. The results will help you decide how hot, cold, wet, or windy it might be!

Date:

Astronomy

Feb. 08, 2013 Rise Set
Actual Time 6:50 AM CST 5:23 PM CST
Civil Twilight 6:22 AM CST 5:51 PM CST
Nautical Twilight 5:51 AM CST 6:22 PM CST
Astronomical Twilight 5:20 AM CST 6:53 PM CST
Moon 5:17 AM CST (2/8) 3:57 PM CST (2/8)
Length of Visible Light 11h 28m
Length of Day
10h 33m
Waning Crescent, 3% of the Moon is Illuminated
Feb 8
Waning Crescent
Feb 10
New
Feb 17
First Quarter
Feb 25
Full
Mar 4
Last Quarter

Hourly Weather History & Observations

Time (CST) Temp. Windchill Dew Point Humidity Pressure Visibility Wind Dir Wind Speed Gust Speed Precip Events Conditions
12:15 AM 45.1 °F 38.8 °F 43.2 °F 93% 29.95 in 10.0 mi NW 13.8 mph 20.7 mph N/A   Overcast
12:35 AM 44.6 °F 36.4 °F 41.9 °F 90% 29.96 in 10.0 mi NW 20.7 mph 27.6 mph N/A   Overcast
12:55 AM 43.9 °F 35.0 °F 41.2 °F 90% 29.97 in 10.0 mi NW 23.0 mph 31.1 mph N/A   Overcast
1:15 AM 43.7 °F 35.0 °F 40.3 °F 88% 29.98 in 10.0 mi NW 21.9 mph 26.5 mph N/A   Overcast
1:35 AM 43.0 °F 34.5 °F 39.4 °F 87% 29.99 in 10.0 mi NNW 19.6 mph 26.5 mph N/A   Overcast
2:15 AM 42.8 °F 35.4 °F 39.0 °F 86% 30.00 in 10.0 mi NNW 15.0 mph 25.3 mph N/A   Overcast
2:35 AM 42.4 °F 33.8 °F 38.8 °F 87% 30.00 in 10.0 mi NW 19.6 mph 25.3 mph N/A   Overcast
2:55 AM 41.9 °F 32.6 °F 37.9 °F 86% 30.01 in 10.0 mi NW 21.9 mph 26.5 mph N/A   Overcast
3:15 AM 41.4 °F 32.1 °F 37.4 °F 86% 30.02 in 10.0 mi NNW 20.7 mph 27.6 mph N/A   Overcast
3:35 AM 41.0 °F 32.5 °F 37.0 °F 86% 30.03 in 10.0 mi NW 17.3 mph 25.3 mph N/A   Overcast
3:55 AM 41.0 °F 32.5 °F 37.0 °F 86% 30.04 in 10.0 mi NNW 17.3 mph 20.7 mph N/A   Overcast
4:15 AM 40.6 °F 32.0 °F 36.5 °F 85% 30.05 in 10.0 mi NW 17.3 mph 20.7 mph N/A   Overcast
4:35 AM 40.3 °F 32.6 °F 36.3 °F 86% 30.07 in 10.0 mi NW 13.8 mph 18.4 mph N/A   Overcast
4:55 AM 40.3 °F 32.6 °F 36.1 °F 85% 30.08 in 10.0 mi NNW 13.8 mph - N/A   Overcast
5:15 AM 39.6 °F 30.3 °F 35.1 °F 84% 30.09 in 10.0 mi NNW 18.4 mph 28.8 mph N/A   Overcast
5:35 AM 39.4 °F 30.7 °F 35.6 °F 86% 30.10 in 10.0 mi NW 16.1 mph 20.7 mph N/A   Overcast
5:55 AM 39.2 °F 31.6 °F 35.6 °F 87% 30.11 in 10.0 mi NW 12.7 mph - N/A   Overcast
6:15 AM 39.0 °F 31.4 °F 35.6 °F 88% 30.12 in 10.0 mi NW 12.7 mph - N/A   Overcast
6:35 AM 38.7 °F 30.9 °F 34.9 °F 86% 30.13 in 10.0 mi NNW 12.7 mph 19.6 mph N/A   Overcast
6:55 AM 38.1 °F 29.1 °F 34.0 °F 85% 30.15 in 10.0 mi North 16.1 mph 23.0 mph N/A   Overcast
7:15 AM 37.6 °F 28.4 °F 33.8 °F 86% 30.16 in 10.0 mi NNW 16.1 mph - N/A   Overcast
7:35 AM 37.9 °F 29.6 °F 33.8 °F 85% 30.18 in 7.0 mi NNW 13.8 mph 20.7 mph N/A   Overcast
7:55 AM 37.9 °F 30.0 °F 34.0 °F 86% 30.19 in 7.0 mi NNW 12.7 mph - N/A   Overcast
8:15 AM 38.3 °F 30.1 °F 34.0 °F 84% 30.20 in 7.0 mi NNW 13.8 mph - N/A   Overcast
8:35 AM 37.9 °F 28.9 °F 32.7 °F 81% 30.21 in 10.0 mi NNW 16.1 mph 20.7 mph N/A   Overcast
8:55 AM 37.8 °F 29.0 °F 32.4 °F 81% 30.22 in 10.0 mi NNW 15.0 mph - N/A   Overcast
9:15 AM 37.8 °F 30.2 °F 32.7 °F 82% 30.23 in 10.0 mi NNW 11.5 mph 19.6 mph N/A   Overcast
9:35 AM 37.9 °F 29.6 °F 33.3 °F 83% 30.23 in 10.0 mi NNW 13.8 mph - N/A   Overcast
9:55 AM 37.9 °F 30.0 °F 33.3 °F 83% 30.25 in 10.0 mi NW 12.7 mph 17.3 mph N/A   Overcast
10:15 AM 38.3 °F 29.0 °F 32.2 °F 79% 30.26 in 10.0 mi NNW 17.3 mph 21.9 mph N/A   Overcast
10:35 AM 38.8 °F 30.4 °F 31.8 °F 76% 30.27 in 10.0 mi NNW 15.0 mph 23.0 mph N/A   Overcast
10:55 AM 38.5 °F 29.9 °F 32.0 °F 78% 30.27 in 10.0 mi North 15.0 mph 18.4 mph N/A   Overcast
11:15 AM 38.3 °F 30.5 °F 32.4 °F 79% 30.28 in 10.0 mi NNW 12.7 mph - N/A   Overcast
11:35 AM 37.6 °F 30.0 °F 32.2 °F 81% 30.29 in 10.0 mi NW 11.5 mph 16.1 mph N/A   Overcast
11:55 AM 37.4 °F 29.3 °F 32.0 °F 81% 30.29 in 10.0 mi NW 12.7 mph - N/A   Overcast
12:15 PM 38.3 °F 30.1 °F 32.0 °F 78% 30.28 in 10.0 mi NNW 13.8 mph - N/A   Overcast
12:35 PM 38.3 °F 30.1 °F 32.0 °F 78% 30.28 in 10.0 mi NNW 13.8 mph - N/A   Overcast
12:55 PM 37.6 °F 30.0 °F 31.5 °F 79% 30.29 in 10.0 mi NNW 11.5 mph 18.4 mph N/A   Overcast
1:15 PM 37.6 °F 30.5 °F 31.3 °F 78% 30.29 in 10.0 mi North 10.4 mph - N/A   Overcast
1:35 PM 37.2 °F 28.7 °F 31.5 °F 80% 30.29 in 10.0 mi North 13.8 mph - N/A   Overcast
1:55 PM 36.5 °F 27.8 °F 31.5 °F 82% 30.29 in 10.0 mi North 13.8 mph 21.9 mph N/A   Overcast
2:15 PM 38.5 °F 31.6 °F 31.6 °F 76% 30.29 in 10.0 mi NNW 10.4 mph 17.3 mph N/A   Mostly Cloudy
2:35 PM 37.9 °F 29.2 °F 30.7 °F 75% 30.30 in 10.0 mi North 15.0 mph - N/A   Overcast
2:55 PM 37.8 °F 30.2 °F 30.7 °F 76% 30.30 in 10.0 mi North 11.5 mph - N/A   Overcast
3:15 PM 37.8 °F 29.8 °F 31.1 °F 77% 30.30 in 10.0 mi North 12.7 mph - N/A   Overcast
3:35 PM 37.6 °F 30.0 °F 30.2 °F 75% 30.31 in 10.0 mi North 11.5 mph - N/A   Overcast
3:55 PM 37.9 °F 30.0 °F 30.6 °F 75% 30.31 in 10.0 mi NNW 12.7 mph - N/A   Overcast
4:15 PM 37.6 °F 29.6 °F 30.7 °F 76% 30.32 in 10.0 mi North 12.7 mph - N/A   Overcast
4:35 PM 37.4 °F 29.8 °F 30.0 °F 75% 30.33 in 10.0 mi North 11.5 mph - N/A   Overcast
4:55 PM 36.9 °F 29.1 °F 29.8 °F 76% 30.33 in 10.0 mi North 11.5 mph - N/A   Overcast
5:15 PM 36.5 °F 27.8 °F 30.2 °F 78% 30.34 in 10.0 mi North 13.8 mph - N/A   Overcast
5:35 PM 36.1 °F 29.3 °F 30.2 °F 79% 30.35 in 10.0 mi North 9.2 mph - N/A   Overcast
5:55 PM 35.8 °F 27.8 °F 29.5 °F 78% 30.37 in 10.0 mi North 11.5 mph - N/A   Overcast
6:15 PM 35.8 °F 28.3 °F 29.7 °F 78% 30.38 in 10.0 mi NNW 10.4 mph - N/A   Overcast
6:35 PM 35.6 °F 29.2 °F 29.5 °F 78% 30.37 in 10.0 mi North 8.1 mph - N/A   Overcast
6:55 PM 35.2 °F 26.6 °F 29.3 °F 79% 30.37 in 10.0 mi North 12.7 mph - N/A   Overcast
7:15 PM 35.2 °F 29.5 °F 29.7 °F 80% 30.37 in 10.0 mi North 6.9 mph - N/A   Overcast
7:35 PM 35.1 °F 26.9 °F 29.3 °F 80% 30.35 in 10.0 mi NNE 11.5 mph - N/A   Overcast
7:55 PM 34.9 °F 26.6 °F 29.1 °F 79% 30.35 in 10.0 mi NNE 11.5 mph - N/A   Overcast
8:15 PM 34.9 °F 27.7 °F 29.3 °F 80% 30.36 in 10.0 mi North 9.2 mph - N/A   Overcast
8:35 PM 34.7 °F 27.5 °F 29.1 °F 80% 30.36 in 10.0 mi North 9.2 mph - N/A   Overcast
8:55 PM 34.9 °F 27.7 °F 29.7 °F 81% 30.37 in 10.0 mi NNE 9.2 mph - N/A   Overcast
9:15 PM 34.9 °F 27.7 °F 29.3 °F 80% 30.38 in 10.0 mi North 9.2 mph - N/A   Overcast
9:35 PM 34.9 °F 28.3 °F 29.7 °F 81% 30.38 in 10.0 mi North 8.1 mph - N/A   Overcast
9:55 PM 34.9 °F 28.3 °F 28.2 °F 77% 30.39 in 10.0 mi NNE 8.1 mph - N/A   Overcast
10:15 PM 34.9 °F 29.0 °F 28.6 °F 78% 30.38 in 10.0 mi NNE 6.9 mph - N/A   Overcast
10:35 PM 34.9 °F 28.3 °F 28.8 °F 78% 30.38 in 10.0 mi NNE 8.1 mph - N/A   Overcast
10:55 PM 34.9 °F 29.0 °F 29.3 °F 80% 30.37 in 10.0 mi NE 6.9 mph - N/A   Overcast
11:15 PM 34.9 °F 28.3 °F 29.5 °F 81% 30.37 in 10.0 mi NE 8.1 mph - N/A   Overcast
11:35 PM 35.1 °F 29.3 °F 28.8 °F 78% 30.37 in 10.0 mi NE 6.9 mph - N/A   Overcast
11:55 PM 35.4 °F 30.5 °F 29.3 °F 78% 30.37 in 10.0 mi East 5.8 mph - N/A   Overcast